AL YAH 3 (43174 NORAD) Tracking and Keplerian Element Data

This shows tracking and keplerian element data for the satellite.

Feedback or suggestion? Click here.




ElementValue
Catalog43174
NameAL YAH 3
Epoch Orbit2343
Epoch Day159.91924581
Epoch Year2024
RAAN277.1096
Inclination0.0497
Eccentricity0.000169
Argument of Perigee174.602
Mean Anonmoly115.9072
Mean Motion1.00270257
Decay Rate-1.56E-06
L11 43174U 18012A 24159.91924581 -.00000156 00000+0 00000+0 0 9992
L22 43174 0.0497 277.1096 0001690 174.6020 115.9072 1.00270257 23430



Live tracking and technical data element details for AL YAH 3 (NORAD 43174). AL YAH 3 can be tracked NOW for your location showing map with azimuth and elevation plus other details from your city location.







IsCatalogInMostPopularTable: catalog: 43174, numindb: 993
Update: records affected: 1



GetName: 43174 AL YAH 3

Hit Count: updated at: Tue, 17 Sep 2024 11:26:10 GMT